Weather Roundup
Issued by NWS Corpus Christi, TX

Home | Current Version | Previous Version | Text Only | Print | Product List | Glossary On
Versions: 1 2 3 4 5 6 7 8 9 10 11 12 13 14 15 16 17 18 19 20 21 22 23 24 25 26 27 28 29 30 31 32 33 34 35 36 37 38 39 40 41 42 43 44 45 46 47 48 49 50
000
ASUS44 KCRP 262010
HRRCRP

SOUTH TEXAS REGIONAL WEATHER ROUNDUP
NATIONAL WEATHER SERVICE CORPUS CHRISTI TX
200 PM CST MON JAN 26 2015


TXZ229>244-262100-
...CORPUS CHRISTI AREA OBSERVATIONS...

CITY           SKY/WX    TMP DP  RH WIND       PRES   REMARKS
CORPUS CHRISTI PTSUNNY   72  39  30 SW5       30.21F
NAS CORPUS CHR PTSUNNY   69  37  30 CALM      30.22F
ROCKPORT       PTSUNNY   68  38  33 SE8       30.21F
KINGSVILLE NAS PTSUNNY   75  38  26 E3        30.21F
ALICE          PTSUNNY   76  32  20 CALM      30.20F
FALFURRIAS     PTSUNNY   75  26  16 E3        30.21F
$$

...VICTORIA AREA OBSERVATIONS...

CITY           SKY/WX    TMP DP  RH WIND       PRES   REMARKS
VICTORIA       PTSUNNY   71  38  29 NW5       30.20F
BEEVILLE       FAIR      71  36  28 NW5       30.21F
PLEASANTON     CLOUDY    72  32  23 W8        30.21F
SAN ANTONIO    CLOUDY    71  35  26 SW8       30.20F
$$

...LAREDO AREA OBSERVATIONS...

CITY           SKY/WX    TMP DP  RH WIND       PRES   REMARKS
LAREDO         SUNNY     75  36  23 SE5       30.24F
COTULLA        PTSUNNY   75  33  21 CALM      30.22F
DEL RIO        CLOUDY    68  34  28 CALM      30.22F
MCALLEN        MOSUNNY   74  35  24 S5        30.24F
HEBBRONVILLE   PTSUNNY   73  25  16 SE3       30.22F
$$

...OTHER TEXAS OBSERVATIONS...

CITY           SKY/WX    TMP DP  RH WIND       PRES   REMARKS
BROWNSVILLE    MOSUNNY   77  30  17 E6        30.24F
HOUSTON        PTSUNNY   64  34  32 NW3       30.18F
COL. STATION   MOSUNNY   65  33  30 VRB6      30.18F
AUSTIN         PTSUNNY   72  37  28 NW10      30.18F
WACO           SUNNY     70  37  29 SW8       30.15F
FORT WORTH     MOSUNNY   68  35  29 SW12      30.10F
WICHITA FALLS  SUNNY     69  39  33 W13       30.10F
LUBBOCK        MOSUNNY   71  26  18 W16G23    30.21F
EL PASO        PTSUNNY   57  27  31 N6        30.28F
$$

...MARINE OBSERVATIONS...

STATION/POSITION TIME  SKY/WX   TEMP    WIND        PRES    VSBY  WAVE   SWELL
                                AIR SEA DIR/SP/G                  HT/PER HT/PER
                 (UTC)          (F)     (DEG/KT/KT) (MB)    (MI)  (FT/S) (FT/S)
PORT ARANSAS     2000            59 56  100/  6/  7 1024.0F
BUOY 90 E PORT A 2000            62 69  320/  8/ 10 1023.5F         2/ 4
BUOY 45 SE BAFFI 2000            64 68  290/  4/  6 1023.7F         1/ 5   2/ 5
BUOY 200 E PT IS 2000            67 72  360/ 12/ 17 1022.0F         5/ 6   3/ 6
BUOY 15 E GALVES 2000            56 56  290/ 10/ 10 1021.8F         1/ 5
$$


USA.gov is the U.S. government's official web portal to all federal, state and local government web resources and services.